Skip Page Navigation
NASA JPL Caltech
NASA Logo - Jet Propulsion Laboratory + View the NASA Portal
+ Near-Earth Object (NEO) Program
Search JPL
JPL Home Earth Solar System Stars & Galaxies Technology
JPL Solar System Dynamics
BODIES ORBITS EPHEMERIDES TOOLS PHYSICAL DATA DISCOVERY FAQ SITE MAP
JPL Small-Body Database Browser
Search: [ help ]  
136849 (1998 CS1)
Classification: Apollo [NEO, PHA]          SPK-ID: 2136849
Ephemeris | Orbit Diagram | Orbital Elements | Physical Parameters | Discovery Circumstances | Close-Approach Data ]

[ show orbit diagram ]
Orbital Elements at Epoch 2456800.5 (2014-May-23.0) TDB
Reference: JPL 67 (heliocentric ecliptic J2000)
 Element Value Uncertainty (1-sigma)   Units 
e .5781612017596747 4.8442e-08  
a 1.491458955302405 4.2203e-09 AU
q .6291552533295378 7.2292e-08 AU
i 7.790585763056707 8.4206e-06 deg
node 110.8190650105544 1.219e-05 deg
peri 97.62462790461916 1.4649e-05 deg
M 308.5357314547934 4.498e-06 deg
tp 2456895.608359327676
(2014-Aug-26.10835933)
8.713e-06 JED
period 665.2967257833942
1.82
2.8238e-06
7.731e-09
d
yr
n .5411119370474821 2.2967e-09 deg/d
Q 2.353762657275273 6.6603e-09 AU
  Orbit Determination Parameters
   # obs. used (total)      281  
   # delay obs. used      3  
   # Doppler obs. used      0  
   data-arc span      4663 days (12.77 yr)  
   first obs. used      1998-02-09  
   last obs. used      2010-11-16  
   planetary ephem.      DE431  
   SB-pert. ephem.      SB431-BIG16  
   condition code      0  
   fit RMS      .47157  
   data source      ORB  
   producer      Otto Matic  
   solution date      2014-Jun-11 05:38:39  

Additional Information
 Earth MOID = .0193308 AU 
 T_jup = 4.354 
[ show covariance matrix ]

Ephemeris | Orbit Diagram | Orbital Elements | Physical Parameters | Discovery Circumstances | Close-Approach Data ]

Physical Parameter Table
Parameter Symbol Value Units Sigma Reference Notes
absolute magnitude H 17.6 mag n/a MPO150869  
rotation period rot_per 2.765 h n/a Asteroid Lightcurve DataBase (Rev. 2013-Sep-12) Published Reference List:
[Ye, Q. (2010) Minor Planet Bul. 37, 75.]
[Skiff, B.A.; Bowell, E.; Koehn, B.W.; Sanborn, J.J.; McLelland, K.P.; Warner, B.D. (2012) Minor Planet Bul. 39, 111-130.]

136849 (1998 CS1)          Discovered 1998-Feb-09 by Beijing Schmidt CCD Asteroid Program at Xinglong (327)
Reference: 20061205/Numbers.arcLast Updated: 2006-12-13

[ show close-approach data ]
Ephemeris | Orbit Diagram | Orbital Elements | Physical Parameters | Discovery Circumstances | Close-Approach Data ]
ABOUT SSD CREDITS/AWARDS PRIVACY/COPYRIGHT GLOSSARY LINKS
FirstGov 2014-Jul-31 03:21 UT
(server date/time)  
NASA Home Page
Site Manager:   Donald K. Yeomans
Webmaster  Alan B. Chamberlin